Regional Weather Roundup
Issued by NWS Columbia, SC

Home | Current Version | Previous Version | Text Only | Print | Product List | Glossary On
Versions: 1 2 3 4 5 6 7 8 9 10 11 12 13 14 15 16 17 18 19 20 21 22 23 24 25 26 27 28 29 30 31 32 33 34 35 36 37 38 39 40 41 42 43 44 45 46 47 48 49 50
000
ASUS42 KCAE 230810
RWRCAE
REGIONAL WEATHER ROUNDUP
NATIONAL WEATHER SERVICE COLUMBIA SC
300 AM EST THU NOV 23 2017

NOTE: "FAIR" INDICATES FEW OR NO CLOUDS BELOW 12,000 FEET WITH NO
SIGNIFICANT WEATHER AND/OR OBSTRUCTIONS TO VISIBILITY.

NOT ALL STATIONS ARE QUALITY CONTROLLED BY THE NATIONAL
WEATHER SERVICE. USE DATA WITH CAUTION...ESPECIALLY
DEWPOINT OBSERVATIONS.

SCZ001>056-GAZ040-063>065-077-230900-
...UPSTATE SOUTH CAROLINA...

CITY           SKY/WX    TMP DP  RH WIND       PRES   REMARKS
ANDERSON       CLOUDY    45  29  53 E9        30.11S
LIBERTY        PTSUNNY   36  33  88 CALM      30.11S
SPARTANBURG    CLOUDY    41  30  65 NE3       30.12S
CLEMSON        CLOUDY    44  30  57 NE3       30.13R
GREENVILLE     CLOUDY    45  26  47 NE8       30.12F
GREENWOOD      CLOUDY    43  32  65 NE5       30.12F
GREER          CLOUDY    42  27  55 NE7       30.13S
ROCK HILL      PTCLDY    42  29  59 VRB3      30.14S
CHESTER        MOSUNNY   41  30  65 NE8       30.14S
LAURENS        MOSUNNY   41  32  70 NE7       30.11F


...CENTRAL SOUTH CAROLINA...

CITY           SKY/WX    TMP DP  RH WIND       PRES   REMARKS
COLUMBIA APT   MOCLDY    51  30  44 NE6       30.11R
COLUMBIA OWENS CLOUDY    49  28  44 VRB6      30.12R
MCENTIRE ANGB  CLOUDY    47  29  49 NE7       30.11R
ORANGEBURG     PTCLDY    49  35  58 NE7       30.09R
SUMTER SHAW    CLOUDY    44  30  57 NE7       30.09S
NEWBERRY       PTSUNNY   43  34  70 NE7       30.15R
AIKEN          FAIR      46  34  61 NE9       30.12R
BARNWELL         N/A     52  39  62 NE6       30.07F
MANNING        FAIR      48  36  61 MISG      30.09S
CAMDEN         FAIR      45  27  49 NE9       30.13R
LANCASTER      CLOUDY    43  27  52 NE5       30.14S
WINNSBORO      MOSUNNY   45  32  61 NE7       30.11S


...EASTERN AND COASTAL SOUTH CAROLINA...

CITY           SKY/WX    TMP DP  RH WIND       PRES   REMARKS
MYRTLE BEACH   MOCLDY    48  36  63 N14       30.09F
N MYRTLE BCH   PTCLDY    47  37  68 N14       30.08F
CONWAY         FAIR      45  34  65 N6        30.10S
MARION         FAIR      43  32  65 NE7       30.12S
HARTSVILLE     FAIR      43  28  56 NE10      30.12S
FLORENCE       CLOUDY    46  30  53 NE10      30.11F
DARLINGTON     PTCLDY    43  30  60 N7        30.14S
CHARLESTON APT CLOUDY    52  40  63 NE10      30.06S
MOUNT PLEASANT FAIR      52  39  62 N6        30.06S
WALTERBORO     CLOUDY    52  39  62 NE9       30.08R
BEAUFORT       CLOUDY    55  45  68 NE9       30.05S


...EASTERN GEORGIA...

CITY           SKY/WX    TMP DP  RH WIND       PRES   REMARKS
AUGUSTA BUSH F CLOUDY    53  39  59 NE7       30.08R
AUGUSTA DANIEL CLOUDY    55  35  47 NE9       30.08S
THOMSON        CLOUDY    51  44  76 E8        30.14S
WASHINGTON     FAIR      46  37  71 NE3       30.10R
CLAXTON        PTSUNNY   58  51  77 NE5       30.04R
SYLVANIA       SUNNY     55  48  78 E6        30.06S
STATESBORO     MOCLDY    56  44  63 E3        30.05S
SAVANNAH       CLOUDY    56  49  77 NE7       30.03F


...SOUTHERN NORTH CAROLINA...

CITY           SKY/WX    TMP DP  RH WIND       PRES   REMARKS
CHARLOTTE      MOCLDY    41  28  60 NE6       30.14S
MONROE         PTCLDY    39  30  70 NE7       30.13S WCI  34
WADESBORO      MOSUNNY   37  28  70 CALM      30.15S
RUTHERFORDTON  CLOUDY    37  30  76 CALM      30.14S
ASHEVILLE      PTCLDY    32  28  85 CALM      30.12S

$$



USA.gov is the U.S. government's official web portal to all federal, state and local government web resources and services.